This is the latest recevied weather packets stored in our database for station/object HJ3GNC-11. If no packets are shown the sender has not sent any weather packets the latest 10 day(s).
| Time | Temp. | Humidity | Pressure | Rain* | Wind** | Luminosity | Snow |
|---|---|---|---|---|---|---|---|
| 1777955594 | 12.22° C | 85% | 1019 hPa | 0 mm | - | - | - |
| 1777954651 | 13.89° C | 83% | 1020 hPa | 0 mm | - | - | - |
| 1777953708 | 13.89° C | 84% | 1020 hPa | 0 mm | - | - | - |
| 1777952757 | 13.89° C | 86% | 1020 hPa | 0 mm | - | - | - |
| 1777951803 | 13.89° C | 84% | 1020 hPa | 0 mm | - | - | - |
| 1777950859 | 13.89° C | 85% | 1020 hPa | 0 mm | - | - | - |
| 1777949913 | 13.89° C | 87% | 1020 hPa | 0 mm | - | - | - |
| 1777948969 | 13.89° C | 85% | 1020 hPa | 0 mm | - | - | - |
| 1777948026 | 13.89° C | 81% | 1019 hPa | 0 mm | - | - | - |
| 1777947080 | 13.89° C | 83% | 1019 hPa | 0 mm | - | - | - |
| 1777946137 | 13.89° C | 85% | 1019 hPa | 0 mm | - | - | - |
| 1777945193 | 12.78° C | 85% | 1019 hPa | 0 mm | - | - | - |
| 1777944250 | 13.89° C | 83% | 1018 hPa | 0 mm | - | - | - |
| 1777943305 | 12.78° C | 83% | 1018 hPa | 0 mm | - | - | - |
| 1777942358 | 13.33° C | 85% | 1018 hPa | 0 mm | - | - | - |
| 1777941391 | 13.89° C | 83% | 1018 hPa | 0 mm | - | - | - |
| 1777940441 | 12.78° C | 83% | 1016 hPa | 0 mm | - | - | - |
| 1777939499 | 13.33° C | 85% | 1016 hPa | 0 mm | - | - | - |
| 1777938558 | 13.33° C | 85% | 1016 hPa | 0 mm | - | - | - |
| 1777937618 | 13.33° C | 83% | 1016 hPa | 0 mm | - | - | - |
| 1777936671 | 14.44° C | 77% | 1015 hPa | 0 mm | - | - | - |
| 1777935727 | 14.44° C | 78% | 1015 hPa | 0 mm | - | - | - |
| 1777934786 | 14.44° C | 80% | 1015 hPa | 0 mm | - | - | - |
| 1777933844 | 16.67° C | 76% | 1014 hPa | 0 mm | - | - | - |
| 1777931958 | 15.56° C | 76% | 1013 hPa | 0 mm | - | - | - |
* Rain latest hour (hover to see other rain measurements)
** Current wind speed in m/s (hover to see current wind gust speed)